Location: Mikul�ov
(48.5711°N, 17.2132°E)
Time: 05:05:49
(UTC+00:00)

Daily predictions for brighter satellites

Satellite Brightness Start Highest point End
(mag) Time Altitude Azimuth Time Altitude Azimuth Time Altitude Azimuth
Cosmos 2237 Rocket 4.1 01:52:28 25° NE 01:52:28 25° NE 01:54:45 10° NNE
USA 215 4.1 01:46:51 10° NE 01:51:07 44° ENE 01:51:07 44° ENE
Cosmos 2219 Rocket 4.3 02:01:02 20° NNE 02:01:02 20° NNE 02:02:51 10° NNE
ATLAS CENTAUR R/B 4.2 02:13:09 18° ENE 02:13:09 18° ENE 02:14:28 10° NE
NOSS 3-1 (A) 4.1 02:14:15 70° ESE 02:14:15 70° ESE 02:21:50 10° SE
Cosmos 1943 Rocket 3.8 02:13:49 29° NNE 02:14:46 30° NE 02:19:35 10° ESE
SL-16 R/B 3.0 02:33:07 49° E 02:33:07 49° E 02:37:57 10° NE
Cosmos 2369 Rocket 3.5 02:38:57 17° N 02:42:51 38° NE 02:48:09 10° ESE
ATLAS 2AS CENTAUR R/B 4.5 02:43:18 20° NNW 02:46:57 27° N 02:53:11 10° ENE
CZ-4C R/B 3.0 02:49:27 43° N 02:49:27 43° N 02:54:20 10° NE
ADEOS II 4.4 02:46:55 10° N 02:47:33 13° N 02:47:33 13° N
Cosmos 1934 Rocket 4.0 02:47:34 10° N 03:01:37 - S 02:53:10 72° NNW
Cosmos 2251 Rocket 3.8 02:55:35 64° E 02:55:35 64° E 03:00:27 10° NNE
IDEFIX/ARIANE 42P 3.7 02:50:20 10° N 02:53:19 34° N 02:53:19 34° N
Lacrosse 5 2.4 02:56:47 54° E 02:56:47 54° E 03:00:46 10° ESE
PAYLOAD A 4.3 02:52:02 10° NNE 02:56:34 60° E 02:56:34 60° E
BREEZE M DEB (TANK) 4.2 03:06:55 36° ENE 03:06:55 36° ENE 03:10:18 10° E
Cosmos 2333 Rocket 4.0 03:07:47 19° NNW 03:07:47 19° NNW 03:10:36 10° N
Meteor 2-3 Rocket 4.3 03:00:41 10° N 03:06:22 57° ENE 03:12:03 10° SSE
CZ-2C R/B 2.7 03:04:30 10° NNE 03:09:42 68° ESE 03:10:46 53° SSE
Cosmos 2221 4.3 03:05:59 10° SSE 03:09:43 30° E 03:13:29 10° NNE
Cosmos 1605 Rocket 3.8 03:11:41 10° N 03:17:58 88° W 03:24:07 10° S
ALOS 4.5 03:14:18 10° NE 03:18:11 25° E 03:22:01 10° SSE
BREEZE-M DEB (TANK) 2.9 03:21:49 76° W 03:22:12 89° SW 03:33:14 10° ESE
ADEOS 3.4 03:22:19 10° N 03:27:31 67° WNW 03:27:38 67° W
GEOS 3 Rocket 4.3 03:24:58 10° NE 03:30:10 52° SE 03:33:19 23° SSW
NOSS 2-1 (E) 4.0 03:32:57 42° NNE 03:32:57 42° NNE 03:35:46 10° NE
Cosmos 1153 Rocket 4.5 03:26:33 10° N 03:32:45 80° E 03:38:51 10° SSE
Cosmos 2237 Rocket 3.3 03:34:18 28° NW 03:34:18 28° NW 03:38:30 10° NNE
USA 215 3.7 03:29:56 10° ENE 03:36:10 49° NNW 03:38:28 35° WNW
Spot 2 4.0 03:34:53 10° N 03:38:29 64° NNW 03:38:29 64° NNW
STARLINK-1141 4.5 03:39:46 32° NNE 03:39:46 32° NNE 03:42:09 10° ENE
Meteor 2-10 Rocket 3.6 03:40:29 52° WNW 03:40:31 52° WNW 03:45:35 10° N
STARLINK-1140 4.4 03:41:52 33° NNE 03:41:52 33° NNE 03:44:22 10° ENE
Cosmos 2219 Rocket 4.1 03:42:45 14° NNW 03:42:45 14° NNW 03:45:40 10° N
STARLINK-1156 4.3 03:44:03 34° NNE 03:44:03 34° NNE 03:46:39 10° ENE
CZ-4B R/B 2.8 03:41:13 10° NNE 03:44:55 70° ESE 03:46:10 38° S
STARLINK-1148 4.2 03:46:10 34° NNE 03:46:10 34° NNE 03:48:52 10° ENE
Cosmos 1727 Rocket 3.9 03:40:59 10° S 03:47:11 86° E 03:53:24 10° N
Aureole 2 Rocket 2.7 03:47:43 56° E 03:47:43 56° E 03:50:33 10° SSE
STARLINK-1158 4.2 03:48:21 35° NNE 03:48:21 35° NNE 03:51:08 10° ENE
ATLAS CENTAUR R/B 2.2 03:49:21 38° NW 03:49:21 38° NW 03:53:24 10° NNE
Meteor 1-31 Rocket 2.5 03:46:00 10° N 03:49:49 80° WNW 03:50:23 62° SW
Cosmos 2173 Rocket 4.3 03:46:43 10° N 03:53:02 69° ENE 03:59:13 10° SSE
SKYMED 2 3.7 03:49:16 10° SSE 03:53:36 77° ENE 03:57:57 10° N
Cosmos 1339 Rocket 4.4 03:49:40 19° SSW 03:53:57 58° WNW 04:00:01 10° N
MSX 4.3 03:51:28 10° N 03:56:38 36° WNW 03:57:22 35° W
Cosmos 1500 Rocket 3.4 03:53:08 10° NNW 03:57:35 74° W 04:01:58 10° S
Cosmos 1943 Rocket 2.2 03:55:25 22° NW 03:58:48 54° WSW 04:04:09 10° S
Cosmos 614 Rocket 4.1 03:57:24 10° SSW 04:02:33 78° ESE 04:07:46 10° NNE
H-2A R/B 2.5 03:58:23 10° N 04:02:44 67° WNW 04:06:15 16° SSW
Cosmos 1356 Rocket 4.2 04:03:55 33° NW 04:03:55 33° NW 04:06:57 10° N
STARLINK-1153 3.9 04:07:20 32° N 04:07:33 32° N 04:10:16 10° ENE
STARLINK-1180 3.9 04:07:31 32° N 04:07:45 33° N 04:10:28 10° ENE
Okean O Rocket 3.5 04:04:16 10° NNE 04:08:12 32° E 04:12:06 10° SSE
STARLINK-1174 3.9 04:07:58 32° N 04:08:13 33° N 04:10:55 10° ENE
STARLINK-1139 3.9 04:08:11 32° N 04:08:27 33° N 04:11:09 10° ENE
Cosmos 2100 Rocket 3.9 04:02:14 10° N 04:08:30 88° W 04:14:40 10° S
STARLINK-1133 3.8 04:08:24 32° N 04:08:40 33° N 04:11:22 10° ENE
STARLINK-1151 3.8 04:08:38 32° N 04:08:55 33° N 04:11:38 10° ENE
STARLINK-1118 3.7 04:09:01 32° SSE 04:09:18 33° SE 04:11:39 10° ENE
STARLINK-1160 3.8 04:09:16 32° N 04:09:34 33° N 04:12:17 10° ENE
Cosmos 1743 Rocket 3.6 04:05:32 10° NNW 04:09:44 50° W 04:13:55 10° S
STARLINK-1161 3.8 04:09:29 32° N 04:09:47 33° N 04:12:30 10° ENE
STARLINK-1145 3.8 04:09:42 32° N 04:10:02 33° N 04:12:44 10° ENE
STARLINK-1172 3.8 04:09:55 32° NNW 04:10:15 33° N 04:12:57 10° ENE
STARLINK-1182 3.8 04:10:21 31° NNW 04:10:42 33° N 04:13:24 10° ENE
STARLINK-1164 3.8 04:10:33 31° NNW 04:10:55 33° N 04:13:37 10° ENE
STARLINK-1168 3.8 04:10:47 31° NNW 04:11:09 33° N 04:13:51 10° ENE
STARLINK-1183 3.8 04:11:25 31° NNW 04:11:50 33° N 04:14:32 10° ENE
STARLINK-1181 3.8 04:11:38 31° NNW 04:12:02 33° N 04:14:45 10° ENE
Cosmos 1869 3.2 04:08:44 10° S 04:12:44 88° ESE 04:16:43 10° N
STARLINK-1196 3.8 04:12:17 31° NNW 04:12:44 33° N 04:15:28 10° ENE
STARLINK-1149 3.8 04:12:46 30° N 04:13:02 31° N 04:15:33 10° ENE
STARLINK-1186 3.8 04:12:44 31° NNW 04:13:12 33° N 04:15:54 10° ENE
STARLINK-1185 3.8 04:12:57 31° NNW 04:13:24 33° N 04:16:08 10° ENE
STARLINK-1175 3.8 04:13:09 31° NNW 04:13:38 33° N 04:16:20 10° ENE
STARLINK-1147 3.8 04:13:22 31° NNW 04:13:52 33° N 04:16:34 10° ENE
STARLINK-1146 3.8 04:13:35 31° NNW 04:14:06 33° N 04:16:49 10° ENE
STARLINK-1152 3.8 04:13:48 31° NNW 04:14:19 33° N 04:17:02 10° ENE
STARLINK-1195 3.8 04:14:01 30° NNW 04:14:32 33° N 04:17:15 10° ENE
STARLINK-1137 3.8 04:14:15 30° NNW 04:14:46 33° N 04:17:29 10° ENE
STARLINK-1142 3.8 04:14:28 30° NNW 04:15:00 33° N 04:17:43 10° ENE
STARLINK-1127 3.8 04:14:40 30° NNW 04:15:13 33° N 04:17:56 10° ENE
STARLINK-1184 3.8 04:14:53 30° NNW 04:15:26 33° N 04:18:09 10° ENE
STARLINK-1193 3.8 04:15:07 30° NNW 04:15:41 33° N 04:18:23 10° ENE
STARLINK-1194 3.8 04:15:18 30° NNW 04:15:53 33° N 04:18:35 10° ENE
SL-16 R/B 3.0 04:15:01 27° W 04:16:49 33° NW 04:21:55 10° NNE
FENGYUN 3A 3.7 04:14:56 10° NNE 04:20:25 85° ESE 04:25:52 10° SSW
STARLINK-1132 3.8 04:20:14 29° NNW 04:20:52 33° N 04:23:26 10° ENE
Cosmos 1459 Rocket 3.9 04:15:56 10° NNW 04:22:07 77° W 04:28:21 10° S
Cosmos 2061 Rocket 4.1 04:16:18 10° N 04:22:37 80° E 04:28:50 10° SSE
STARLINK-1150 3.8 04:22:37 28° NNW 04:23:22 33° N 04:25:57 10° ENE
STARLINK-1162 4.0 04:22:57 26° NW 04:24:09 37° N 04:27:11 10° ENE
STARLINK-1163 3.8 04:23:49 27° NNW 04:24:36 33° N 04:27:11 10° ENE
Cosmos 1842 Rocket 4.1 04:21:59 18° SW 04:24:54 38° WNW 04:29:06 10° N
STARLINK-1157 4.0 04:24:51 25° NW 04:26:08 37° N 04:29:09 10° ENE
STARLINK-1173 3.8 04:25:37 26° NNW 04:26:29 34° N 04:29:04 10° ENE
STARLINK-1177 3.8 04:25:47 26° NNW 04:26:40 34° N 04:29:15 10° ENE
Cosmos 2369 Rocket 2.5 04:21:34 10° NW 04:26:57 43° WSW 04:32:18 10° S
Shenzhou-11 Module 4.1 04:26:01 13° SSW 04:27:13 16° SSE 04:28:58 10° ESE
Cosmos 1238 Rocket 3.8 04:21:11 10° N 04:27:28 88° E 04:32:46 10° S
STARLINK-1167 3.8 04:26:34 26° NNW 04:27:30 34° N 04:30:04 10° ENE
STARLINK-1159 3.9 04:26:50 24° NW 04:28:14 37° N 04:31:15 10° ENE
STARLINK-1171 3.9 04:28:59 23° NW 04:30:27 38° N 04:33:29 10° ENE
STARLINK-1070 3.3 04:29:12 22° SW 04:30:50 54° SSE 04:33:42 10° ENE
SJ-12 3.8 04:26:48 10° N 04:30:55 68° WNW 04:35:01 10° SSW
Meteor PRIRODA 3.9 04:27:34 10° N 04:31:07 44° WNW 04:34:38 10° SW
STARLINK-1124 2.9 04:29:56 25° SW 04:31:24 65° SSE 04:34:19 10° ENE
STARLINK-1066 3.2 04:30:06 22° SW 04:31:44 55° SSE 04:34:38 10° ENE
STARLINK-1081 3.2 04:30:19 22° SW 04:31:58 55° SSE 04:34:51 10° ENE
STARLINK-1069 3.2 04:30:45 22° SW 04:32:25 56° SSE 04:35:18 10° ENE
STARLINK-1136 3.7 04:31:18 24° NW 04:32:25 35° N 04:35:01 10° E
STARLINK-1155 3.9 04:30:56 22° NW 04:32:30 38° N 04:35:33 10° E
STARLINK-1085 3.2 04:30:58 22° SW 04:32:39 56° SSE 04:35:32 10° ENE
Cosmos 1725 Rocket 4.2 04:26:23 10° N 04:32:39 75° E 04:38:56 10° SSE
Cosmos 1603 3.7 04:27:11 10° SW 04:32:52 68° WNW 04:38:33 10° NNE
STARLINK-1086 3.2 04:31:11 21° SW 04:32:52 56° SSE 04:35:45 10° ENE
STARLINK-1095 3.2 04:31:24 21° SW 04:33:06 57° SSE 04:35:59 10° ENE
STARLINK-1077 3.2 04:31:37 21° SW 04:33:19 57° SSE 04:36:12 10° ENE
STARLINK-1075 3.2 04:31:50 21° SW 04:33:33 57° SSE 04:36:26 10° ENE
STARLINK-1093 3.2 04:32:03 21° SW 04:33:46 57° SSE 04:36:40 10° ENE
STARLINK-1074 3.1 04:32:15 21° SW 04:33:59 58° SSE 04:36:52 10° ENE
IDEFIX/ARIANE 42P 4.4 04:31:59 10° NNW 04:34:08 13° NW 04:34:08 13° NW
STARLINK-1087 3.1 04:32:29 21° SW 04:34:13 58° SSE 04:37:07 10° ENE
STARLINK-1088 3.1 04:32:41 21° SW 04:34:24 58° SSE 04:37:18 10° ENE
Cosmos 921 Rocket 3.2 04:30:18 10° NNW 04:34:36 49° WSW 04:38:47 10° S
STARLINK-1115 3.1 04:32:54 21° SW 04:34:39 58° SSE 04:37:33 10° ENE
STARLINK-1166 3.9 04:33:09 22° NW 04:34:48 39° N 04:37:51 10° E
STARLINK-1076 3.1 04:33:08 21° SW 04:34:53 59° SSE 04:37:47 10° ENE
STARLINK-1092 3.1 04:33:21 21° SW 04:35:07 59° SSE 04:38:00 10° ENE
STARLINK-1080 3.1 04:33:33 20° SW 04:35:19 59° SSE 04:38:13 10° ENE
STARLINK-1090 3.1 04:33:46 20° SW 04:35:32 59° SSE 04:38:27 10° ENE
MOS 1-B 4.3 04:29:53 10° NNE 04:35:44 88° WNW 04:41:34 10° SSW
STARLINK-1089 3.1 04:34:00 20° SW 04:35:47 60° SSE 04:38:41 10° ENE
STARLINK-1107 3.1 04:34:12 20° SW 04:35:59 60° SSE 04:38:53 10° ENE
STARLINK-1109 3.1 04:34:25 20° SW 04:36:13 60° SSE 04:39:07 10° ENE
NOAA 6 4.4 04:31:15 10° NNE 04:36:27 68° ESE 04:41:34 10° S
STARLINK-1091 3.1 04:34:39 20° SW 04:36:28 60° SSE 04:39:22 10° ENE
STARLINK-1072 3.1 04:34:51 20° SW 04:36:40 61° SSE 04:39:35 10° ENE
USA 116 3.0 04:33:36 10° S 04:36:44 62° WSW 04:39:49 10° NNW
STARLINK-1096 3.1 04:35:04 20° SW 04:36:53 61° SSE 04:39:47 10° ENE
STARLINK-1165 3.9 04:35:12 21° NW 04:36:57 39° N 04:40:01 10° E
STARLINK-1079 3.1 04:35:17 20° SW 04:37:08 61° SSE 04:40:02 10° ENE
Cosmos 482 Debris 3.3 04:37:16 33° SSW 04:37:16 33° SSW 04:38:50 10° SE
STARLINK-1116 3.0 04:35:31 20° SW 04:37:21 62° SSE 04:40:16 10° ENE
Cosmos 2123 Rocket 4.3 04:31:07 10° S 04:37:24 72° E 04:43:40 10° NNE
STARLINK-1094 3.0 04:35:57 19° SW 04:37:48 62° SSE 04:40:42 10° ENE
Cosmos 1943 3.1 04:32:15 10° SSW 04:37:51 78° WNW 04:43:32 10° NNE
Cosmos 1633 2.7 04:34:28 10° NNW 04:38:00 49° W 04:41:31 10° S
STARLINK-1117 3.0 04:36:09 19° SW 04:38:01 62° SSE 04:40:56 10° ENE
STARLINK-1078 3.0 04:36:22 19° SW 04:38:15 63° SSE 04:41:09 10° ENE
CZ-4C R/B 3.9 04:34:38 14° WNW 04:38:16 24° NNW 04:43:35 10° NE
Lacrosse 5 2.9 04:36:01 20° W 04:38:17 28° SW 04:42:33 10° S
CZ-4B DEB 4.2 04:32:46 10° NNE 04:38:18 88° WNW 04:43:46 10° SSW
STARLINK-1108 3.0 04:36:35 19° SW 04:38:29 63° SSE 04:41:23 10° ENE
STARLINK-1071 3.0 04:36:48 19° SW 04:38:41 63° SSE 04:41:36 10° ENE
STARLINK-1110 3.0 04:37:02 19° SW 04:38:56 63° SSE 04:41:50 10° ENE
STARLINK-1169 3.9 04:37:15 20° NW 04:39:06 39° N 04:42:10 10° E
STARLINK-1122 3.0 04:37:28 19° SW 04:39:23 64° SSE 04:42:17 10° ENE
STARLINK-1126 3.0 04:37:40 19° SW 04:39:36 64° SSE 04:42:30 10° ENE
STARLINK-1082 3.0 04:37:54 19° SW 04:39:51 64° SSE 04:42:45 10° ENE
ATLAS 2AS CENTAUR R/B 3.8 04:32:28 10° NW 04:39:56 46° NE 04:46:50 10° ESE
STARLINK-1100 3.0 04:38:06 19° SW 04:40:03 65° SSE 04:42:57 10° ENE
STARLINK-1083 3.0 04:38:19 18° SW 04:40:16 65° SSE 04:43:11 10° ENE
STARLINK-1125 3.0 04:38:32 18° SW 04:40:30 65° SSE 04:43:25 10° ENE
Helios 1A Rocket 4.2 04:36:38 10° NNE 04:40:38 44° E 04:44:36 10° S
STARLINK-1178 3.9 04:39:15 19° NW 04:41:11 40° N 04:44:16 10° E
Cosmos 2263 4.5 04:35:56 10° NW 04:41:19 45° WSW 04:46:38 10° S
Cosmos 1656 Rocket 3.7 04:36:04 10° NNW 04:41:42 67° WSW 04:47:20 10° SSE
COSMO-SKYMED 1 3.1 04:37:45 10° SSW 04:41:45 36° W 04:45:47 10° NNW
STARLINK-1120 3.8 04:41:13 18° NW 04:43:15 40° N 04:46:19 10° E
Cosmos 1802 Rocket 4.0 04:37:22 10° NNW 04:43:45 66° W 04:50:05 10° S
Cosmos 1633 Rocket 3.4 04:40:16 10° N 04:44:39 70° E 04:49:01 10° SSE
STARLINK-1131 3.8 04:43:22 17° NW 04:45:29 41° N 04:48:34 10° E
STARLINK-1170 3.5 04:44:42 18° NW 04:46:15 37° NNE 04:48:45 10° E
CZ-4B R/B 3.4 04:41:16 10° NNE 04:46:38 72° ESE 04:51:54 10° S
Cosmos 1666 Rocket 3.6 04:42:44 10° N 04:47:13 89° E 04:51:38 10° S
Cosmos 2221 3.3 04:43:32 10° SW 04:47:15 28° WNW 04:51:01 10° N
CZ-2C R/B 3.8 04:43:37 10° NNW 04:47:25 21° WNW 04:50:10 14° W
STARLINK-1190 3.8 04:45:30 17° NW 04:47:43 42° NNE 04:50:49 10° E
Cosmos 1862 3.2 04:43:48 10° NNW 04:47:45 70° W 04:51:41 10° S
STARLINK-1098 4.2 04:45:25 10° SW 04:49:22 54° SE 04:53:20 10° ENE
ADEOS Rocket 3.2 04:44:15 10° SSE 04:50:31 85° WSW 04:57:36 10° NNW
SL-08 R/B 4.4 04:45:40 10° NNW 04:51:50 78° W 04:57:54 10° S
Cosmos 1864 Rocket 4.4 04:46:01 10° N 04:52:11 80° W 04:58:19 10° S
STARLINK-1123 4.1 04:50:04 10° SW 04:54:03 58° SSE 04:58:02 10° ENE
ALOS 2.6 04:51:21 10° N 04:55:46 43° WNW 05:00:10 10° SW
Cosmos 1484 Rocket 3.9 04:52:34 10° N 04:55:49 25° WNW 04:59:04 10° WSW
STARLINK-1097 4.0 04:54:51 10° SW 04:58:51 62° SSE 05:02:51 10° ENE
TELKOM 3 2.7 04:58:59 17° WNW 05:00:27 68° N 05:02:34 10° E
STARLINK-1099 3.9 04:59:31 10° SW 05:03:32 67° SSE 05:07:34 10° ENE
COSMOS 2455 4.2 05:00:59 10° NNW 05:06:32 37° NE 05:12:05 10° ESE
STARLINK-1179 3.1 05:04:27 11° WNW 05:06:50 46° NNE 05:09:24 10° E
STARLINK-1176 3.1 05:05:01 11° WNW 05:07:28 47° NNE 05:10:04 10° E
GEOS 3 Rocket 4.2 05:03:11 10° NNE 05:08:07 42° NW 05:13:06 10° WSW
STARLINK-1104 3.8 05:04:09 10° SW 05:08:11 71° SSE 05:12:14 10° ENE
STARLINK-1129 3.6 05:05:59 10° WNW 05:09:08 49° NNE 05:12:20 10° E
Cosmos 2016 Rocket 4.2 05:03:33 10° NNW 05:09:32 50° W 05:15:34 10° SSW
STARLINK-1134 3.6 05:07:54 10° WNW 05:11:07 50° NNE 05:14:18 10° E
SJ-7 4.5 05:07:01 10° N 05:11:15 65° WNW 05:15:24 10° SSW
Cosmos 1340 2.7 05:08:02 10° NNW 05:11:49 89° ENE 05:15:35 10° S
Cosmos 1346 Rocket 3.1 05:08:03 10° N 05:11:58 71° ENE 05:15:50 10° SSE
STARLINK-1144 3.7 05:08:53 10° SW 05:12:56 76° SSE 05:17:00 10° ENE
STARLINK-1135 3.5 05:10:17 10° WNW 05:13:30 51° NNE 05:16:42 10° E
STARLINK-1141 3.5 05:12:38 10° WNW 05:15:51 52° NNE 05:19:03 10° E
PAYLOAD B 4.4 05:10:36 10° N 05:16:03 53° WNW 05:21:24 10° SW
STARLINK-1103 3.7 05:13:39 10° WSW 05:17:42 80° SSE 05:21:47 10° ENE
STARLINK-1140 3.5 05:14:48 10° WNW 05:18:02 54° NNE 05:21:15 10° E
USA 215 4.0 05:12:22 10° ENE 05:18:30 44° N 05:24:37 10° WNW
Cosmos 1954 Rocket 4.1 05:13:24 10° SW 05:18:38 58° WNW 05:23:55 10° NNE
STARLINK-1128 3.6 05:15:54 10° WSW 05:19:55 84° SSE 05:23:58 10° ENE
Cosmos 407 Rocket 4.3 05:15:29 10° WSW 05:20:13 32° NW 05:24:57 10° N
STARLINK-1156 3.5 05:17:06 10° WNW 05:20:21 55° NNE 05:23:33 10° E
Cosmos 1933 3.9 05:17:00 10° S 05:21:04 67° E 05:25:08 10° NNE
Cosmos 1140 Rocket 4.0 05:16:24 10° SW 05:21:20 40° WNW 05:26:18 10° NNE
STARLINK-1101 3.6 05:18:23 10° WSW 05:22:27 85° SSE 05:26:32 10° ENE
STARLINK-1148 3.4 05:19:17 10° WNW 05:22:32 56° NNE 05:25:46 10° E
Cosmos 1850 Rocket 4.5 05:17:34 10° SSW 05:22:50 70° ESE 05:28:06 10° NNE
STARLINK-1113 3.6 05:20:23 10° WSW 05:24:24 88° SSE 05:28:27 10° ENE
STARLINK-1158 3.4 05:21:35 10° WNW 05:24:50 57° NNE 05:28:04 10° E
Cosmos 2233 Rocket 4.0 05:21:07 10° NNW 05:27:20 69° W 05:33:35 10° S
